Flag for Libya Weather past 2 weeks in Benghazi, Libya

Now
77 °F

Passing clouds.


Feels Like: 79 °F
Forecast: 75 / 84 °F
Wind: 7 mph from Northwest

Location: Souda Airport

Current Time: Sep 2, 2015 at 9:16:34 PM

Latest Report: Sep 2, 2015 at 8:20 PM


Visibility: N/A

Pressure: 29.89 "Hg

Humidity: 74%

Dew point: 68 °F

Location of BenghaziLocation

Historic Weather in Benghazi — Graph

°F

Benghazi temperature yesterday

Maximum temperature yesterday: 88 °F (at 11:20 AM)
Minimum temperature yesterday: 70 °F (at 3:50 AM)
Average temperature yesterday: 79 °F

Past Weeks' High & Low Weather Summary

 TemperatureHumidityPressure
High93 °F (Aug 20, 12:50 PM)100% (Sep 1, 3:50 AM)30.04 "Hg (Sep 1, 3:50 AM)
Low68 °F (Aug 29, 2:50 AM)39% (Aug 20, 12:50 PM)29.80 "Hg (Aug 19, 4:50 AM)
Average79 °F68%29.94 "Hg
* Reported Aug 18 7:20 PM — Sep 2 7:50 PM, Benghazi, Weather by CustomWeather, © 2015

Note: Actual official high and low records may vary slightly from our data, if they occured in-between our weather recording intervals... More about our weather records

Advertising

Benghazi weather history for previous 24 hours

 ConditionsComfort  
Time TempWeatherWind HumidityBarometerVisibility
7:50 PM
Wed, Sep 2
77 °FPassing clouds.8 mph74%29.89 "HgN/A
7:20 PM79 °FScattered clouds.7 mph61%29.89 "HgN/A
6:50 PM79 °FPassing clouds.13 mph74%29.89 "HgN/A
6:20 PM82 °FPassing clouds.12 mph66%29.89 "HgN/A
5:20 PM84 °FPassing clouds.14 mph62%29.89 "HgN/A
4:50 PM84 °FPassing clouds.20 mph62%29.89 "HgN/A
4:20 PM84 °FPassing clouds.18 mph66%29.89 "HgN/A
3:50 PM84 °FPassing clouds.21 mph66%29.89 "HgN/A
3:20 PM86 °FPassing clouds.21 mph59%29.89 "HgN/A
2:50 PM86 °FPassing clouds.18 mph62%29.89 "HgN/A
2:20 PM86 °FPassing clouds.12 mph55%29.92 "HgN/A
1:50 PM86 °FPassing clouds.12 mph55%29.92 "HgN/A
1:20 PM88 °FPassing clouds.7 mph52%29.92 "HgN/A
12:50 PM88 °FPassing clouds.7 mph52%29.92 "HgN/A
12:20 PM84 °FPassing clouds.7 mph62%29.92 "HgN/A
11:50 AM84 °FPassing clouds.7 mph62%29.92 "HgN/A
11:20 AM84 °FPassing clouds.7 mph58%29.92 "HgN/A
10:50 AM84 °FPassing clouds.7 mph58%29.92 "HgN/A
10:20 AM82 °FSunny.7 mph62%29.89 "Hg10 mi
9:50 AM82 °FSunny.9 mph62%29.89 "Hg10 mi
9:20 AM81 °FSunny.7 mph66%29.89 "Hg10 mi
8:50 AM81 °FSunny.5 mph62%29.89 "Hg10 mi
8:20 AM77 °FSunny.No wind69%29.86 "Hg10 mi
7:50 AM75 °FSunny.No wind74%29.86 "Hg10 mi
7:20 AM72 °FSunny.No wind65%29.86 "Hg10 mi
6:50 AM70 °FClear.No wind69%29.86 "Hg10 mi
5:50 AM68 °FClear.No wind73%29.86 "Hg10 mi
5:20 AM70 °FPassing clouds.No wind73%29.86 "HgN/A
4:50 AM70 °FPassing clouds.No wind73%29.86 "HgN/A
4:20 AM72 °FPassing clouds.No wind73%29.86 "HgN/A
3:50 AM72 °FPassing clouds.No wind78%29.86 "HgN/A
3:20 AM72 °FPassing clouds.No wind78%29.89 "HgN/A
2:50 AM72 °FPassing clouds.No wind83%29.89 "HgN/A
1:50 AM72 °FPassing clouds.No wind83%29.89 "HgN/A
1:20 AM72 °FPassing clouds.No wind83%29.89 "HgN/A
12:50 AM73 °FPassing clouds.3 mph83%29.92 "HgN/A
11:20 PM
Tue, Sep 1
73 °FPassing clouds.5 mph83%29.92 "HgN/A
10:50 PM73 °FPassing clouds.5 mph83%29.92 "HgN/A
10:20 PM73 °FPassing clouds.6 mph89%29.92 "HgN/A
9:50 PM75 °FPassing clouds.7 mph89%29.92 "HgN/A
9:20 PM75 °FPassing clouds.7 mph89%29.92 "HgN/A
Weather by CustomWeather, © 2015

See weather overviewHow to use our weather pages